Weather History for Telfer, WE

Change the Weather History Date:

Monday, November 19, 2012

  Actual Average Record
Temperature  
Mean Temperature 92 °F -  
Max Temperature 106 °F - - ()
Min Temperature 78 °F - - ()
Cooling Degree Days 27    
Growing Degree Days 42 (Base 50)    
Moisture  
Dew Point 58 °F    
Average Humidity 33    
Maximum Humidity 58    
Minimum Humidity 8    
Precipitation  
Precipitation 0.00 in - - ()
Sea Level Pressure  
Sea Level Pressure 29.75 in    
Wind  
Wind Speed 8 mph ()    
Max Wind Speed 15 mph    
Max Gust Speed -    
T = Trace of Precipitation, MM = Missing Value Source: Averaged Metar Reports

Daily Weather History Graph

Daily Weather History Graph

Search for Another Location

Airport:

Trip Planner

Search our weather history database for the weather conditions in past years. The results will help you decide how hot, cold, wet, or windy it might be!

Date:

Astronomy

Nov. 19, 2012 Rise Set
Actual Time 5:00 AM AWST 6:12 PM AWST
Civil Twilight 4:36 AM AWST 6:37 PM AWST
Nautical Twilight 4:07 AM AWST 7:05 PM AWST
Astronomical Twilight 3:38 AM AWST 7:35 PM AWST
Moon 10:12 AM AWST (11/19) 11:18 PM AWST (11/19)
Length of Visible Light 14h 01m
Length of Day
13h 12m
Waxing Crescent, 35% of the Moon is Illuminated
Nov 19
Waxing Crescent
Nov 20
First Quarter
Nov 28
Full
Dec 6
Last Quarter
Dec 13
New

Hourly Weather History & Observations

Time (AWST) Temp. Heat Index Dew Point Humidity Pressure Visibility Wind Dir Wind Speed Gust Speed Precip Events Conditions
12:00 AM 84 °F - 61 °F 35% 29.71 in - NNE 5.8 mph - -  
12:00 AM 84.2 °F 84.4 °F 60.8 °F 45% 29.77 in - NNE 5.8 mph - N/A   Unknown
1:00 AM 84.2 °F 83.8 °F 59.0 °F 42% 29.77 in - North 8.1 mph - N/A   Unknown
2:00 AM 82 °F - 62 °F 41% 29.69 in - North 10.4 mph - -  
2:00 AM 82.4 °F 83.4 °F 62.6 °F 51% 29.74 in - North 10.4 mph - N/A   Unknown
3:00 AM 80.6 °F 81.5 °F 60.8 °F 51% 29.74 in - NNW 8.1 mph - N/A   Unknown
4:00 AM 80.6 °F 81.5 °F 60.8 °F 51% 29.77 in - NNW 5.8 mph - N/A   Unknown
5:00 AM 79 °F - 60 °F 43% 29.72 in - West 5.8 mph - -  
5:00 AM 78.8 °F - 60.8 °F 54% 29.77 in - West 5.8 mph - N/A   Unknown
6:00 AM 80 °F - 62 °F 44% 29.74 in - WNW 6.9 mph - -  
6:00 AM 80.6 °F 81.8 °F 62.6 °F 54% 29.80 in - WNW 6.9 mph - N/A   Unknown
7:00 AM 80.6 °F 82.3 °F 64.4 °F 58% 29.83 in - North 10.4 mph - N/A   Unknown
8:00 AM 82 °F - 65 °F 47% 29.78 in - NW 13.8 mph - -  
8:00 AM 82.4 °F 83.9 °F 64.4 °F 54% 29.83 in - NW 13.8 mph - N/A   Unknown
9:00 AM 86 °F - 68 °F 45% 29.80 in - NNW 11.5 mph - -  
9:00 AM 86.0 °F 89.4 °F 68.0 °F 55% 29.86 in - NNW 11.5 mph - N/A   Unknown
10:00 AM 91.4 °F 94.0 °F 66.2 °F 43% 29.83 in - NW 15.0 mph - N/A   Unknown
11:00 AM 97 °F - 60 °F 20% 29.75 in - WNW 13.8 mph - -  
11:00 AM 96.8 °F 96.2 °F 59.0 °F 28% 29.80 in - WNW 13.8 mph - N/A   Unknown
12:00 PM 98.6 °F 97.6 °F 57.2 °F 25% 29.80 in - NW 10.4 mph - N/A   Unknown
1:00 PM 100.4 °F 98.8 °F 55.4 °F 22% 29.77 in - NW 9.2 mph - N/A   Unknown
2:00 PM 103 °F - 54 °F 12% 29.68 in - NNW 9.2 mph - -  
2:00 PM 104.0 °F 102.3 °F 53.6 °F 19% 29.74 in - NNW 9.2 mph - N/A   Unknown
3:00 PM 105 °F - 50 °F 9% 29.66 in - NW 8.1 mph - -  
3:00 PM 105.8 °F - 50.0 °F 15% 29.71 in - NW 8.1 mph - N/A   Unknown
4:00 PM 104.0 °F - 46.4 °F 14% 29.68 in - NW 10.4 mph - N/A   Unknown
5:00 PM 104 °F - 47 °F 8% 29.64 in - NNW 8.1 mph - -  
5:00 PM 104.0 °F - 48.2 °F 15% 29.68 in - NNW 8.1 mph - N/A   Unknown
6:00 PM 101 °F - 46 °F 9% 29.65 in - North 5.8 mph - -  
6:00 PM 100.4 °F - 46.4 °F 16% 29.71 in - North 5.8 mph - N/A   Unknown
7:00 PM 96.8 °F - 46.4 °F 18% 29.74 in - North 6.9 mph - N/A   Unknown
8:00 PM 95 °F - 48 °F 12% 29.70 in - NNW 5.8 mph - -  
8:00 PM 95.0 °F - 48.2 °F 20% 29.74 in - NNW 5.8 mph - N/A   Unknown
9:00 PM 93 °F - 63 °F 27% 29.72 in - NW 13.8 mph - -  
9:00 PM 93.2 °F 94.1 °F 62.6 °F 36% 29.77 in - NW 13.8 mph - N/A   Unknown
10:00 PM 91.4 °F 92.1 °F 62.6 °F 38% 29.77 in - NW 15.0 mph - N/A   Unknown
11:00 PM 89 °F - 63 °F 32% 29.73 in - NW 12.7 mph - -  
11:00 PM 89.6 °F 90.1 °F 62.6 °F 40% 29.77 in - NW 12.7 mph - N/A   Unknown